Вернуться в каталог

COSMOS 2251 DEB

АктивенVLEO
NORAD 35442·DEBRIS·🇷🇺 Russia

Запущен Jun 16, 1993 с Plesetsk Cosmodrome

Loading…

Ближайшие Пролёты (ближайшие 24 часа)

TLE

СвежийSource: Space-Track

Эпоха: Sep 14, 2026, 00:25 UTC

1 35442U 93036AKL 26257.01777354  .00015524  00000-0  14005-2 0  9994
2 35442  74.0199 267.4627 0007680 270.3122  89.7183 14.95515277914547

Отслеживайте COSMOS 2251 DEB в реальном времени с AllMySat

Download on the App Store